CZ-6A DEB, 54336

Orbit data source: Space-Track

CZ-6A DEB, 54336 is space debris in SSO originally from a launch on Fri, 11 Nov 2022 UTC launched from the Taiyaun Space Center, China (TSC). Debris objects in space refer to the collection of defunct objects orbiting the Earth. Examples of debris include non-operational satellites, rocket bodies, and fragments generated from explosions, collisions, or faulty payload assembly.

Loading next visibility...
Identifier
54336, 2022-151CF
Orbit
SSO
Country
Flag of CNCN / PRC
Related business
Manufacturer
SAST
Mission
Spacecraft
Bus & Motor
Unknown
Mass
Unknown
Launch date (UTC)
2022-11-11 (4 years ago)
Launch vehicle
Unknown
Launch site
Taiyaun Space Center, China (TSC)
Object type
Payload
Rocket body
Debris
Shape & HBR
Unknown shape, 0.2 m
Radar Cross Section
Medium (>0.1 m² and <1 m²)

Expand to show TLE details & history
Last TLE update: 2 days ago

TLE from 2 days ago
0 CZ-6A DEB
1 54336U 22151CF  26171.24911573  .00000344  00000-0  22194-3 0  9993
2 54336  98.8514 166.5645 0058252 351.5973   8.4216 14.08678880184617
Epoch: 2026-06-20T05:58Z
TLE epoch observation values (Epoch: 2026-06-20T05:58:43.599Z)
Latitude
-0.00001°
Longitude
168.41639°
Altitude
825.056 km
Speed
7.462 km/s
True Right ascension
11h 06m 15s
True Declination
0° 00' 00"
Sunlit
Object was in daylight at epoch
Visualization orbit readout
Latitude
Unknown
Longitude
Unknown
Altitude
Unknown
Speed
Unknown
Apparent Right ascension
Unknown
Apparent Declination
Unknown
Sunlit
N/A
Visualization observer readout
Local Sidereal Time
21:30:09
Azimuth
Unknown
Elevation
Unknown
Doppler factor
Unknown
Orbital elements
Apogee altitude
903.246 km
Perigee altitude
818.907 km
Semi-major axis
7,239.214 km
Eccentricity
0.00583
Inclination
98.8514°
RAAN
166.5645°
Arg. of periapsis
351.5973°
True anomaly
8.52007°
Mean anomaly
8.4216°
Eccentric anomaly
8.47076°
Mean motion
3.52376 °/min
Orbital period
102.16 mins
BSTAR
0.00022194
Loading maneuver chart data...
Computing Atmospheric mass density...
Loading historical data...
Loading historical data...
Loading historical data...
Loading historical data...
Loading historical data...
Loading historical data...
Loading historical data...

Documentation

Showing up to 5 results
|